Wind_Speed
7 7 6 4 3 3 3 4 4 4 4 4 4 5 5 6 6 5 5 5 4 3 3 2 2 2 2 2 2 2 2 2 2 3 3 4 4 5 7 8 8 9 9 10 11 11 12 12 12 13 14 14 15 15 15 15 15 15 16 16 16 16 16 18 20 20 21 21 22 22 22 23 23 23 23 22 21 20 19 18 17 18 20 22 24
6 6 6 5 4 4 4 4 5 5 5 5 5 5 5 6 6 5 5 4 3 3 3 2 2 1 1 1 2 2 2 2 2 3 3 4 4 5 7 8 8 9 10 11 11 12 12 12 13 13 14 14 15 15 16 16 16 17 17 17 18 18 17 18 19 21 21 22 23 23 23 22 23 23 23 23 22 22 21 20 19 18 19 20 22
4 5 6 6 5 4 5 5 5 5 6 5 6 6 6 6 6 5 5 4 3 4 4 3 3 2 2 2 3 4 4 4 3 4 5 5 6 7 7 8 9 10 10 11 12 13 13 14 14 15 15 15 16 16 16 17 17 18 19 19 19 19 19 19 20 21 22 23 24 24 24 24 23 23 23 23 23 23 22 22 21 21 20 20 21
5 4 5 6 6 5 5 6 6 6 6 6 6 7 7 7 6 6 6 5 5 6 6 5 5 5 4 4 5 6 6 6 6 7 8 8 9 9 10 10 11 12 12 13 14 15 15 16 17 17 17 18 18 18 18 18 18 18 19 20 20 20 20 20 20 21 22 22 23 24 25 25 25 25 24 23 24 24 23 23 22 22 22 21 21
7 6 5 6 7 7 6 6 7 7 7 7 8 8 8 8 8 7 7 7 7 7 7 7 7 7 7 7 8 8 8 8 8 9 10 11 12 12 13 13 14 15 15 16 16 17 18 18 19 19 20 20 20 20 20 20 20 20 20 21 21 22 22 22 22 22 22 23 23 24 25 26 26 26 26 25 24 24 24 24 23 23 23 22 22
9 8 7 8 9 9 8 8 8 8 8 8 9 9 9 9 9 9 9 9 9 9 9 9 10 10 10 10 10 10 10 10 11 11 12 13 14 14 15 15 16 17 18 18 19 19 20 21 21 22 23 23 23 23 23 22 22 22 22 22 23 23 24 24 24 24 24 24 24 24 24 25 25 26 26 26 26 25 24 24 24 24 24 24 24
10 10 10 10 10 10 10 10 9 9 9 10 11 11 11 11 12 11 11 11 11 11 11 12 13 13 13 12 12 12 13 13 13 14 15 16 16 16 16 17 18 18 19 20 21 21 21 22 23 23 24 24 24 24 24 24 23 23 23 24 24 25 25 25 25 25 25 26 26 26 25 25 25 25 25 26 26 26 25 24 24 24 25 25 25
9 11 12 12 11 11 12 12 11 11 11 12 12 12 13 14 14 14 14 14 14 14 14 15 15 16 15 15 14 14 15 16 16 17 18 18 19 19 19 19 19 20 21 22 23 23 23 23 24 24 25 25 25 25 25 24 24 24 24 25 26 27 27 27 27 27 27 27 26 27 26 26 26 26 25 24 25 26 27 26 25 25 26 26 25
9 10 12 13 13 13 13 14 13 13 13 14 14 14 15 16 17 17 17 17 17 17 17 18 18 18 18 17 17 17 18 18 19 19 20 21 22 22 22 21 21 21 21 22 23 24 25 25 25 26 26 26 25 25 25 25 24 25 25 26 27 28 29 29 29 29 29 28 28 27 27 27 27 27 26 25 24 24 26 27 27 27 28 28 27
9 11 13 14 15 15 14 14 13 14 15 15 15 16 17 18 18 19 19 19 19 20 20 21 21 21 21 20 20 21 22 22 21 22 23 24 25 25 24 24 23 23 23 23 24 26 27 27 27 27 26 26 25 25 25 25 25 25 26 27 28 29 30 31 31 31 31 30 29 29 28 28 28 28 28 27 26 25 25 26 27 28 30 31 30
11 12 14 15 16 15 14 13 14 15 16 16 17 18 19 19 20 21 21 21 21 22 22 22 23 24 24 24 25 26 26 25 24 25 26 27 28 27 27 26 25 25 25 25 26 27 28 28 28 27 26 25 25 25 25 25 25 26 27 28 29 30 31 32 32 32 32 31 30 30 30 29 30 30 30 30 29 28 27 26 27 27 29 31 32
13 15 15 15 15 15 14 14 15 16 16 16 17 18 20 21 22 22 23 23 24 24 24 25 26 27 27 28 29 29 29 27 27 28 29 29 29 28 27 26 26 25 26 27 27 28 29 28 28 27 26 25 25 25 25 25 26 27 29 30 31 32 33 33 33 33 32 32 31 31 30 30 31 31 32 32 31 31 30 29 29 29 30 31 33
14 16 14 10 12 14 14 15 16 17 17 18 19 19 20 21 22 22 23 24 24 24 25 25 27 28 28 29 29 29 28 27 27 28 29 28 27 26 27 26 26 26 27 27 28 29 29 28 28 27 26 25 25 25 25 26 27 28 29 30 32 33 34 34 33 33 33 33 33 33 32 32 32 32 32 33 33 33 33 32 32 32 32 32 34
15 15 13 8 10 13 14 16 17 18 20 20 20 20 20 21 21 21 22 22 22 23 23 24 25 26 26 27 27 26 25 25 26 27 27 27 26 26 27 27 27 27 27 28 29 29 29 28 27 26 26 25 26 26 26 27 28 29 30 31 33 34 35 35 34 34 34 35 35 35 34 34 34 33 33 33 34 35 35 35 35 35 35 35 35
13 13 11 10 12 15 18 19 20 20 21 22 22 21 21 21 22 21 20 20 20 21 21 22 23 24 24 24 24 23 22 23 25 26 26 26 26 26 27 28 28 28 28 28 28 29 28 28 27 26 25 25 26 27 28 28 29 30 32 33 34 35 36 36 35 35 35 35 36 36 36 36 35 34 34 34 35 37 38 38 38 38 37 37 37
10 10 10 12 13 16 20 23 25 25 23 22 22 21 22 22 22 20 19 19 19 19 20 21 21 22 22 23 22 22 22 23 24 25 26 27 27 28 27 28 28 28 27 27 28 28 28 27 25 25 24 25 27 28 28 29 30 31 33 34 34 35 36 36 36 36 36 36 36 37 36 36 35 35 35 36 38 39 40 41 41 41 40 39 38
9 11 13 14 13 15 17 20 23 25 24 23 22 21 21 21 19 18 18 18 18 18 19 19 21 21 22 22 23 23 23 24 25 25 26 26 27 28 27 27 28 27 26 26 27 28 27 26 25 24 24 25 27 28 29 29 31 32 33 34 34 34 36 37 37 36 36 36 37 37 36 36 35 36 37 39 40 41 42 43 43 44 43 41 40
11 13 15 14 14 17 18 18 18 19 21 21 20 20 19 18 17 17 18 18 18 19 19 20 21 22 23 24 25 25 24 24 25 26 26 25 26 27 27 27 28 27 26 26 27 27 27 26 25 24 24 26 27 29 30 31 32 34 34 34 35 35 37 37 37 37 37 37 37 37 36 35 35 37 39 41 42 43 43 44 45 46 45 44 43
13 15 16 15 15 17 17 17 16 16 16 16 17 17 16 15 16 17 18 19 20 21 21 22 23 24 25 27 27 27 25 25 25 26 27 26 26 27 27 28 28 28 27 27 27 26 26 26 26 26 25 26 28 30 31 32 34 35 35 35 36 37 37 38 38 39 39 38 37 36 35 35 36 38 40 42 43 43 44 45 46 46 45 44 43
14 16 18 17 16 15 14 14 14 15 16 15 15 15 15 16 16 17 18 20 22 23 24 25 26 27 27 29 30 29 27 26 26 27 28 28 28 28 28 28 29 28 28 28 28 27 27 27 27 27 27 27 29 31 33 34 35 36 36 37 37 38 38 38 39 40 40 39 37 36 35 36 38 39 41 43 44 44 43 43 42 42 42 43 43
16 19 19 18 16 15 14 14 13 13 14 15 16 16 17 17 17 18 19 21 23 24 26 28 30 30 30 30 32 32 30 28 28 29 29 29 30 30 29 29 29 30 30 30 29 29 28 28 28 28 28 28 30 32 34 35 36 36 37 38 38 38 38 39 40 40 40 39 38 36 36 38 39 40 41 43 43 43 41 39 39 41 43 46 46
18 20 19 17 17 17 17 15 13 12 12 13 15 16 17 18 19 20 21 22 24 27 29 31 32 33 33 32 34 35 33 31 31 31 31 30 29 30 30 30 29 30 31 30 30 31 31 29 29 28 29 30 32 34 35 36 37 37 38 38 38 38 38 39 40 41 41 40 38 37 37 38 40 40 41 41 41 40 40 40 41 44 47 49 50
20 19 16 15 15 16 16 14 12 12 12 13 14 16 17 19 20 22 23 24 27 29 31 33 34 35 35 35 37 37 36 34 34 33 32 30 29 29 30 29 28 29 30 30 31 32 32 31 30 30 30 32 33 35 36 37 37 38 39 39 39 39 39 40 40 41 41 40 38 37 38 39 40 40 40 40 39 40 41 43 46 48 49 50 50
17 15 14 15 15 14 13 11 11 12 13 14 15 16 17 19 20 22 24 27 30 32 33 34 35 36 37 39 40 39 37 36 37 36 34 30 27 29 31 29 28 30 30 31 32 33 33 32 31 31 32 33 34 36 37 37 37 38 39 40 40 40 40 40 41 41 41 39 39 39 40 41 41 41 39 39 39 41 44 46 48 49 49 48 47
16 16 16 16 16 15 13 12 13 14 15 16 16 16 17 18 20 23 26 29 31 33 34 35 37 38 40 42 42 39 37 39 40 39 37 33 29 29 30 30 30 31 32 32 32 33 33 32 32 33 34 34 35 36 37 37 37 37 38 39 40 40 40 40 42 42 41 41 42 42 42 42 42 41 39 39 40 42 45 46 47 47 48 47 45
17 19 18 16 16 15 16 16 17 16 17 17 17 17 18 19 22 24 27 30 33 35 36 36 38 41 44 46 43 39 38 41 42 41 40 36 31 29 30 31 31 31 31 31 32 32 33 33 33 34 35 36 36 37 37 37 37 36 37 39 40 39 40 42 43 42 42 43 44 43 42 42 41 40 40 40 41 42 44 45 46 47 47 46 43
21 22 20 18 17 18 20 21 21 20 20 20 19 20 22 24 26 28 30 32 35 36 37 38 40 43 46 46 44 42 42 41 40 40 41 38 33 30 31 33 32 30 28 29 30 31 32 33 34 36 36 37 38 38 38 38 38 37 39 40 39 40 43 44 43 42 43 44 44 43 42 41 41 40 41 41 42 42 43 44 46 47 46 44 42
23 24 23 21 20 21 22 23 24 23 23 23 23 24 26 27 28 30 32 34 37 39 39 39 42 45 46 45 45 46 45 42 41 41 41 39 36 34 33 34 32 27 25 26 27 29 31 33 35 36 37 37 38 39 39 39 39 39 40 41 40 42 45 45 43 44 45 45 44 43 42 41 41 41 41 42 42 43 43 44 46 46 45 43 41
25 26 25 24 23 23 24 24 23 22 22 23 25 26 27 27 29 32 34 36 39 41 41 40 42 44 43 45 47 48 45 43 43 43 41 39 38 37 36 36 32 27 23 24 26 28 30 32 34 36 37 37 38 39 39 38 38 40 41 42 43 45 45 44 45 47 47 45 44 43 42 42 41 41 42 42 43 44 44 44 46 46 44 42 40
28 28 27 26 26 26 25 23 22 22 24 26 27 29 29 30 33 36 38 39 40 41 40 40 41 43 44 46 49 47 42 40 41 41 41 40 40 39 37 37 36 32 28 28 29 28 29 31 33 35 36 37 37 37 36 37 38 40 41 43 45 45 44 45 47 47 45 44 43 43 43 43 42 42 42 42 43 45 45 45 46 45 42 41 39
31 31 30 29 30 30 27 23 23 25 28 29 30 31 32 34 38 42 43 43 41 39 38 38 40 42 44 45 44 41 39 39 40 40 40 38 36 35 35 39 43 40 36 36 35 30 29 31 33 34 35 35 34 35 37 38 38 39 41 43 44 44 44 46 47 46 44 43 43 43 44 44 43 42 42 43 44 45 45 45 46 44 40 39 38
33 33 32 33 34 33 29 25 26 28 31 32 33 34 35 37 41 43 44 44 42 40 38 39 40 41 41 41 40 39 38 38 38 39 39 35 32 30 33 36 38 38 37 37 34 30 29 31 32 34 34 33 34 36 37 37 38 39 41 42 43 44 46 47 45 44 43 43 43 44 44 44 43 42 42 43 44 45 45 46 45 42 39 38 38
34 34 34 35 37 36 32 30 31 33 34 35 35 35 36 38 41 42 43 44 43 41 40 40 41 43 44 40 36 36 37 37 37 37 35 32 31 34 37 34 32 33 33 33 31 29 30 31 32 34 34 34 35 36 37 38 39 39 41 43 44 45 46 45 43 43 44 44 44 45 45 44 43 42 42 43 44 44 45 45 43 38 37 37 37
34 35 36 37 39 38 34 34 37 38 38 38 35 34 36 39 41 43 43 44 43 42 41 41 42 43 40 34 32 35 36 37 36 35 31 29 31 36 37 33 30 31 31 30 28 28 30 32 33 35 35 35 36 37 39 39 38 39 42 44 44 45 44 43 42 42 43 44 45 45 44 43 42 41 42 42 43 44 45 44 39 36 35 36 36
36 37 37 38 40 39 37 38 41 42 42 41 37 36 39 41 43 43 44 44 44 44 43 43 43 42 35 30 33 36 36 36 37 35 31 28 30 32 31 29 28 29 28 27 26 28 31 32 34 36 36 37 37 39 39 38 38 41 45 45 44 44 44 43 42 43 44 45 45 45 44 42 41 41 41 42 42 43 42 40 36 35 35 35 36
38 38 38 38 39 39 39 41 43 43 44 43 39 38 41 43 44 44 44 45 45 45 44 43 43 42 37 34 36 37 37 38 37 33 28 27 29 28 27 27 27 26 25 25 26 29 31 33 34 36 37 38 38 37 36 37 41 45 45 45 45 45 44 43 43 44 45 45 45 44 42 40 39 40 41 42 41 40 40 38 36 35 33 33 35
38 38 38 39 38 37 39 42 43 43 44 43 42 43 46 47 46 45 45 45 44 45 44 42 42 42 39 35 35 36 38 38 35 29 27 29 29 27 26 26 26 24 24 25 27 30 32 33 34 36 39 39 36 34 36 41 45 46 45 46 46 45 45 45 45 46 46 45 44 42 40 38 38 39 40 41 41 40 39 36 34 33 32 32 35
40 39 40 40 37 37 40 44 44 44 45 45 47 50 51 49 47 45 45 45 45 45 44 43 43 43 40 37 36 36 37 37 33 29 29 31 31 26 26 27 26 24 24 26 28 31 31 32 34 39 41 36 32 34 40 44 46 46 47 48 47 47 47 46 46 46 46 44 42 39 38 37 37 38 39 41 41 40 36 33 33 32 31 32 34
43 44 43 41 39 40 44 45 45 46 47 47 50 52 50 47 45 45 45 46 46 46 45 45 44 43 42 41 39 38 37 34 31 29 32 35 34 30 29 29 28 26 26 29 32 32 31 33 37 39 36 32 33 39 44 45 46 47 49 49 48 48 47 46 46 45 43 41 39 37 36 36 36 37 39 40 40 38 35 33 33 32 31 31 32
45 45 43 41 42 45 46 46 47 49 49 51 53 51 47 45 45 45 47 48 48 47 46 45 44 43 43 42 39 37 34 32 30 31 34 37 36 33 32 33 32 30 28 29 31 31 33 40 39 33 30 33 39 44 45 46 48 49 50 49 48 47 46 46 44 42 39 38 37 36 36 36 36 36 38 39 38 35 33 32 32 31 30 30 30
44 44 43 44 45 45 46 47 48 49 50 51 51 47 45 45 46 47 48 48 47 46 45 43 42 42 42 40 37 35 33 32 34 35 36 37 35 33 33 35 33 29 26 27 30 32 38 41 34 28 32 39 43 44 45 47 49 49 50 49 47 46 45 43 40 38 37 36 36 36 36 35 35 36 37 37 35 32 30 29 29 29 29 29 29
44 45 46 48 48 48 49 50 49 49 49 47 44 43 43 45 47 48 48 46 45 44 43 42 42 42 41 40 37 35 35 35 36 37 39 38 34 32 33 31 27 25 28 33 35 37 41 38 30 32 40 43 43 46 47 47 49 49 49 47 45 44 42 39 37 36 35 35 35 36 36 35 35 36 36 34 32 29 27 27 27 28 28 28 29
49 50 52 54 55 55 55 54 52 49 47 44 42 43 44 46 48 48 46 44 42 42 41 41 42 42 41 40 39 38 38 38 38 39 39 35 30 29 28 25 24 28 35 39 38 40 44 40 35 37 42 43 45 48 47 47 48 48 46 45 43 41 39 37 36 36 35 35 35 35 35 35 35 35 35 33 30 28 27 26 26 27 27 28 29
56 58 61 59 55 52 51 51 49 47 44 43 44 46 46 47 46 44 42 41 41 41 41 41 42 42 42 41 41 41 41 40 37 34 32 29 27 26 27 28 32 37 40 40 39 41 43 40 37 39 42 44 47 47 46 47 47 46 44 42 40 38 37 36 36 35 35 35 35 35 35 35 34 34 34 31 29 28 28 27 26 26 27 28 28
58 60 59 52 43 41 43 45 45 45 44 44 45 45 45 43 42 41 40 40 40 40 40 41 42 43 43 44 44 42 40 37 32 28 26 28 28 29 32 36 37 37 38 40 41 41 39 38 40 43 45 45 46 45 46 47 46 44 42 40 37 37 37 37 37 36 35 34 34 35 35 34 33 33 33 31 29 28 28 27 27 26 26 27 28
53 51 47 40 36 37 40 41 42 44 44 44 43 42 40 39 38 39 39 39 39 40 41 42 43 44 45 44 42 39 35 31 29 28 29 31 32 34 38 39 38 38 41 42 42 41 41 41 43 45 45 45 45 46 46 46 45 43 40 38 37 37 37 37 37 36 34 33 34 35 35 33 32 32 32 31 30 29 28 28 27 26 26 27 27
48 43 39 36 36 37 39 39 40 41 41 41 40 38 38 37 37 37 38 38 39 41 41 42 43 44 45 43 39 37 34 32 32 34 35 34 34 37 39 39 39 42 45 45 44 43 43 43 43 44 44 44 45 45 46 46 44 41 39 38 38 38 37 37 36 35 33 33 34 35 34 32 31 31 31 31 31 30 29 28 27 26 25 26 27
40 37 35 34 35 36 37 38 39 40 40 39 38 38 38 38 38 38 38 39 41 42 42 43 44 44 43 40 37 35 34 33 35 37 37 35 36 38 40 42 44 47 48 47 46 45 44 43 43 43 43 43 45 46 46 45 43 41 39 39 38 37 37 36 35 34 33 32 33 34 33 31 30 30 30 31 31 30 29 28 27 26 25 26 26
36 35 34 35 36 37 39 39 39 39 39 39 38 39 38 38 39 39 39 40 42 42 41 40 37 33 30 30 31 32 33 35 37 38 39 40 42 44 45 46 48 49 48 47 46 45 44 43 42 42 43 44 46 46 45 43 42 40 39 39 38 37 36 35 34 33 32 32 33 33 32 31 30 29 29 29 29 29 29 28 28 27 26 25 26
36 36 36 36 37 38 38 38 38 38 38 39 39 39 39 39 40 40 40 43 44 42 38 34 30 28 29 32 34 37 40 42 42 43 45 46 47 47 48 48 49 49 49 48 47 46 44 43 43 44 45 45 45 45 44 43 41 40 39 38 37 36 35 34 34 33 32 33 33 32 32 31 29 28 29 29 28 28 29 29 28 27 26 25 25
35 35 35 35 36 36 37 38 38 39 39 40 40 40 40 41 41 41 42 44 43 41 39 37 37 39 41 41 41 43 45 46 46 47 47 46 47 47 48 48 48 49 49 49 47 45 43 43 44 45 45 45 45 44 43 42 41 39 39 38 36 35 34 34 34 33 32 32 32 32 31 30 28 28 29 29 28 28 28 28 29 28 27 25 25
Wind_Direction
360 2 3 6 344 287 256 231 222 211 199 191 183 180 178 177 183 191 202 214 222 220 218 228 241 255 266 281 287 288 287 285 278 266 264 276 293 303 307 309 310 311 313 314 315 317 318 320 321 321 323 325 327 327 327 327 328 329 328 327 326 326 327 325 325 327 328 329 329 330 330 329 327 327 330 332 332 331 328 322 312 302 292 284 277
345 347 346 355 355 318 290 267 246 237 227 214 206 198 191 190 192 194 200 210 223 230 231 230 234 249 274 309 319 320 322 320 307 292 291 296 303 306 307 309 311 310 309 309 310 312 313 315 314 314 316 318 319 318 319 322 323 323 322 322 322 322 323 322 321 322 323 324 324 325 325 326 325 324 325 325 326 327 327 327 323 314 302 292 284
320 326 324 333 344 334 313 292 268 249 236 222 215 209 202 200 200 198 197 203 220 233 234 227 230 241 266 297 310 316 322 325 318 308 308 311 312 312 312 312 312 311 309 310 312 313 313 313 312 313 314 315 315 315 317 319 319 318 317 316 316 316 317 317 317 317 318 319 319 320 321 321 323 323 322 321 320 321 322 324 325 323 316 305 295
289 290 297 309 319 328 325 305 283 262 244 229 222 219 214 211 210 208 208 210 218 228 233 236 243 254 267 282 294 299 305 309 309 309 311 311 311 310 308 308 308 309 310 311 313 313 313 313 314 314 314 313 313 314 315 315 315 315 315 314 313 312 312 312 312 312 313 313 314 316 317 318 320 320 320 319 317 316 317 318 320 322 321 315 308
280 279 280 289 295 303 310 303 291 273 254 239 233 232 229 226 225 224 222 222 225 233 240 248 256 265 273 280 285 289 294 301 306 310 311 309 308 309 308 308 309 310 311 312 314 314 314 315 315 314 313 312 312 312 312 313 315 316 315 314 313 311 311 310 309 309 309 309 310 311 313 314 316 317 317 317 315 313 314 314 315 316 317 316 314
278 281 277 275 278 282 287 290 289 278 265 253 247 247 245 242 239 238 238 238 241 246 253 261 267 271 275 279 285 291 297 303 307 308 307 306 306 306 306 306 307 308 309 310 311 313 315 316 316 315 313 312 311 310 310 312 314 315 316 314 312 311 310 309 308 308 308 308 308 309 310 311 313 314 314 314 313 312 311 311 311 311 311 312 312
276 283 283 276 272 273 274 277 279 276 271 264 259 259 257 255 254 252 251 252 254 258 263 267 270 272 276 281 289 296 301 304 305 305 304 303 302 301 301 301 302 303 305 306 308 310 312 314 315 314 312 310 309 308 308 308 310 312 312 311 310 310 309 308 308 307 307 308 308 309 309 309 309 310 310 310 309 309 308 307 306 306 306 307 308
279 280 278 273 270 270 273 274 271 269 268 266 265 265 265 265 264 263 261 262 263 265 267 268 271 274 279 283 289 293 296 298 299 300 299 298 298 297 297 297 298 300 301 302 304 306 307 309 311 311 310 308 307 306 306 306 307 308 309 309 308 309 310 309 308 308 308 307 308 308 308 308 308 308 308 307 305 305 306 306 304 303 302 303 304
288 282 274 269 267 268 275 277 273 268 264 264 266 269 270 271 272 271 270 270 270 271 272 273 276 279 282 285 288 289 291 292 293 294 293 292 292 292 292 292 293 294 296 298 300 302 304 306 308 308 308 308 307 306 305 304 304 306 307 307 308 309 310 310 310 309 309 309 308 308 308 308 308 308 308 307 304 302 302 304 304 302 301 301 301
297 287 279 273 269 270 278 282 277 270 266 265 266 266 268 272 275 276 275 275 276 277 278 279 281 283 285 286 287 288 289 291 292 291 290 289 288 288 288 289 290 292 295 298 301 303 305 306 308 308 307 307 307 306 305 304 304 305 307 307 308 309 310 310 310 309 309 310 310 309 309 309 309 309 309 308 306 303 301 301 302 301 301 301 302
312 299 284 275 275 277 276 274 270 268 268 269 268 267 269 271 274 276 277 278 279 281 282 284 285 286 287 288 289 290 291 292 293 292 291 290 289 288 290 291 293 296 299 301 303 304 305 306 307 307 306 306 306 306 305 304 305 306 307 308 308 309 310 309 309 309 309 309 309 309 309 309 309 310 310 309 308 307 304 302 302 300 298 298 299
321 315 296 273 271 273 264 261 265 268 270 271 272 273 273 273 274 275 277 279 281 283 284 285 287 288 288 290 291 292 292 293 293 292 291 290 290 290 292 294 295 297 299 302 304 305 306 307 307 306 306 306 307 306 306 306 307 308 309 309 310 310 310 309 308 308 308 308 308 308 307 307 308 309 309 309 309 308 307 305 304 302 300 298 297
317 320 312 276 260 261 256 259 265 268 271 272 274 275 276 276 276 276 279 282 285 287 287 288 288 288 289 291 292 292 293 293 291 290 290 290 290 291 292 293 295 297 299 302 304 306 306 306 307 306 307 308 308 308 308 308 309 309 310 310 311 311 310 309 309 309 309 308 308 307 307 307 306 307 307 307 307 308 307 307 306 304 302 300 297
313 317 317 285 257 255 255 258 262 265 268 270 273 274 275 276 276 278 282 286 289 290 291 291 290 290 291 292 292 290 290 290 289 288 288 288 288 289 291 293 296 298 301 303 304 305 305 305 306 306 308 309 310 309 309 309 309 309 310 310 311 310 309 309 309 309 309 308 308 307 307 307 307 307 307 307 307 308 307 307 306 305 303 300 297
315 315 309 290 270 263 263 265 266 267 267 268 271 272 273 273 275 278 283 288 291 292 292 292 292 293 293 293 290 286 285 286 287 288 288 288 288 290 292 295 297 300 302 303 303 303 303 304 305 306 308 310 310 309 308 307 308 308 309 309 310 310 310 310 310 310 310 308 307 306 306 306 308 308 308 308 308 308 307 307 306 305 303 300 297
316 311 310 302 288 277 274 273 273 272 270 269 269 271 272 272 274 279 286 291 292 292 293 294 295 295 294 293 290 286 283 284 285 287 287 288 289 290 292 293 295 298 299 301 301 302 302 303 303 305 307 309 307 306 305 305 306 306 307 308 310 311 311 312 312 310 309 308 306 306 306 306 308 309 309 309 309 308 308 307 307 305 303 300 298
306 309 314 314 311 300 289 282 275 271 268 267 267 269 272 275 279 284 288 290 292 292 293 294 295 296 295 294 292 289 287 286 286 286 286 287 287 288 289 290 292 294 295 296 298 300 301 301 301 303 305 306 304 302 301 302 304 304 305 307 309 311 312 311 311 310 309 308 307 307 307 307 309 310 311 310 310 309 308 307 307 306 303 301 298
298 310 314 317 320 313 304 296 284 273 266 265 266 268 274 279 281 283 285 288 291 293 294 294 294 294 293 291 290 289 289 288 287 286 285 284 283 282 284 287 290 291 291 292 295 298 299 299 300 302 303 303 302 300 300 301 302 303 305 308 310 312 312 311 310 310 310 309 308 307 307 308 310 312 312 311 309 308 308 308 307 306 304 302 301
299 311 315 316 315 311 309 304 292 281 272 268 268 270 273 275 274 277 282 287 293 296 297 295 292 291 291 289 287 288 289 289 287 286 285 283 280 279 282 286 289 288 287 288 292 296 298 299 300 301 302 302 301 301 301 302 302 304 306 309 311 312 312 311 310 310 310 309 308 307 308 309 311 312 311 310 308 308 307 307 307 306 305 304 303
300 309 313 312 309 308 310 308 298 283 274 270 272 273 272 271 272 277 283 290 296 299 297 294 291 291 290 287 287 289 289 288 287 284 283 283 282 281 282 285 288 288 285 285 289 294 297 298 299 300 301 303 303 303 302 302 302 304 307 310 311 311 311 311 310 309 308 308 308 307 308 310 313 313 312 310 308 308 308 308 308 308 308 307 306
299 306 309 307 307 308 308 308 299 282 272 269 270 272 273 275 279 283 288 293 297 296 294 292 290 290 290 287 286 288 287 285 283 281 280 281 283 283 284 286 289 288 286 285 288 293 296 297 297 299 302 304 304 302 301 301 302 304 309 311 311 310 310 310 309 309 308 308 307 307 309 312 314 314 312 311 309 308 308 308 308 309 310 309 308
297 300 304 306 309 310 309 306 294 280 274 271 269 272 276 280 285 288 291 295 295 293 292 291 290 292 291 287 284 283 282 280 278 277 277 278 281 284 284 285 287 287 286 285 288 293 295 295 297 300 304 305 304 302 301 301 303 306 309 311 310 309 310 310 309 309 309 307 306 307 310 313 315 314 313 312 309 308 307 307 308 310 310 309 307
292 296 304 308 308 310 311 304 286 274 271 270 270 273 276 280 285 288 293 294 293 292 292 292 295 295 291 285 281 278 276 277 276 274 274 277 280 282 281 282 284 284 283 285 289 293 295 296 299 303 305 305 304 302 302 302 304 307 308 308 308 308 308 308 309 310 310 308 306 309 312 314 315 314 313 311 308 306 306 306 308 309 308 307 305
291 302 307 304 302 306 313 308 289 276 267 264 266 268 273 280 285 289 293 293 292 293 294 297 298 294 288 283 280 275 273 274 274 271 272 275 276 277 277 278 281 283 283 286 291 295 297 298 301 303 304 304 303 302 302 302 304 305 307 307 306 306 307 308 310 311 310 308 307 310 312 313 313 313 312 309 307 305 304 305 307 307 306 305 304
300 312 309 307 304 301 304 305 300 289 274 268 268 270 276 282 286 291 293 293 294 296 299 301 299 292 286 282 279 278 277 277 275 272 273 273 271 272 275 277 280 282 284 288 294 297 298 299 301 301 301 302 302 302 302 302 303 304 306 307 307 307 308 309 310 309 308 307 307 308 310 311 311 311 309 307 306 305 304 306 307 306 305 305 304
307 311 311 316 314 307 308 309 305 295 282 275 274 277 283 286 288 291 292 295 298 299 301 301 296 290 287 283 279 280 280 276 274 274 274 273 270 268 271 274 278 281 284 289 295 297 297 298 298 298 300 302 302 302 300 299 300 302 306 309 309 309 310 311 309 309 308 307 306 307 308 309 309 308 307 307 306 306 305 306 306 305 305 306 303
302 304 306 313 312 309 311 311 304 296 289 285 284 288 292 292 292 293 295 298 300 299 299 298 293 291 294 290 281 279 280 275 271 271 272 273 273 273 273 275 277 279 283 290 293 293 293 294 295 296 298 301 301 299 296 295 296 300 307 311 312 311 312 312 310 310 310 308 306 306 308 308 307 307 307 308 308 307 306 305 304 304 305 304 300
297 299 302 307 309 307 308 307 301 293 290 290 291 293 294 294 294 296 298 300 299 298 298 297 297 299 303 299 287 281 281 278 274 273 273 273 275 278 279 278 277 277 283 291 291 289 290 291 292 295 297 298 297 294 292 292 294 298 306 311 312 312 312 312 311 311 310 308 307 307 308 307 306 307 308 308 308 307 306 305 304 303 304 302 298
298 300 301 304 306 306 305 303 297 292 293 295 293 292 293 295 299 301 301 299 297 298 299 301 303 304 305 302 293 285 282 281 279 278 275 275 277 280 280 278 277 277 285 296 296 290 289 291 292 295 297 296 295 293 292 293 295 299 305 309 311 312 311 311 310 310 309 308 308 308 308 306 306 308 309 309 308 307 306 305 303 303 304 301 297
298 299 300 302 303 304 303 301 298 299 302 301 295 293 293 298 302 305 304 301 299 300 301 303 305 304 303 301 295 289 286 286 286 284 281 280 279 278 278 278 278 278 283 297 304 297 291 293 294 296 297 296 296 296 295 296 298 301 304 307 310 310 310 310 310 310 309 308 308 308 307 306 307 308 310 310 308 307 306 305 303 304 304 300 296
293 294 297 300 302 303 300 297 299 301 301 298 295 294 296 300 303 305 305 304 303 303 302 303 304 304 305 303 295 290 291 291 291 289 287 284 280 279 283 284 284 281 279 289 302 301 294 295 297 297 298 298 299 299 299 299 301 304 306 309 310 309 309 309 310 309 308 307 307 306 306 306 307 310 311 310 308 307 306 304 304 305 303 299 295
288 292 296 298 301 301 298 296 300 301 301 299 298 298 299 301 303 303 303 303 304 305 305 305 304 305 307 304 294 289 297 303 303 301 294 283 278 288 298 296 288 281 277 284 295 297 295 295 296 297 298 299 301 301 301 302 304 307 309 310 309 307 308 309 310 308 307 307 307 306 305 306 308 310 311 309 308 307 306 305 306 306 302 298 295
287 290 293 296 298 298 297 300 305 305 304 304 301 299 299 300 302 303 303 303 304 305 306 306 306 307 307 306 299 297 304 309 309 309 303 288 282 293 302 297 283 275 277 285 291 292 293 295 296 296 298 301 303 302 302 304 306 307 309 309 308 307 308 309 309 308 307 307 307 306 305 307 310 311 310 309 308 307 305 305 306 305 301 297 295
286 288 291 294 295 295 296 302 306 305 303 302 301 300 301 303 304 303 302 302 303 304 305 304 305 306 305 305 305 305 306 305 302 301 300 293 289 293 294 288 275 271 277 285 289 292 295 296 296 297 299 302 303 303 303 304 304 306 308 309 308 308 308 309 308 308 307 307 306 305 305 308 310 310 309 308 308 308 306 305 305 303 299 296 294
283 286 289 290 290 291 294 300 304 305 303 300 299 301 304 305 304 302 301 301 301 302 302 302 303 305 303 301 303 304 304 303 301 296 292 291 293 292 288 281 274 274 281 288 293 297 298 296 296 298 300 302 302 303 303 302 303 306 309 309 309 309 309 310 310 309 308 307 305 304 305 308 310 310 309 309 309 308 305 304 304 301 298 296 293
280 283 285 284 285 287 291 296 301 303 302 300 299 301 305 304 301 300 299 299 299 300 301 302 303 302 302 302 304 305 304 302 300 296 290 291 295 294 288 282 280 281 288 294 299 298 295 294 297 299 300 302 301 301 301 302 305 308 310 310 310 311 312 313 312 310 309 307 305 305 307 309 310 310 309 309 309 306 303 302 303 301 297 294 292
277 277 276 277 279 281 286 292 297 298 299 299 299 300 302 301 298 296 297 297 298 299 300 301 301 300 300 303 306 306 304 300 298 294 289 291 296 293 286 281 281 285 291 295 296 294 293 296 299 300 301 300 297 297 301 306 309 311 311 311 312 314 315 315 313 311 309 307 306 307 309 310 310 309 309 308 307 305 302 302 302 300 295 292 292
270 269 270 272 275 277 282 288 292 293 294 297 299 299 299 297 294 294 295 296 296 297 298 298 299 299 301 305 306 305 300 296 296 294 289 292 295 289 281 279 281 285 288 288 289 291 294 301 304 303 301 298 295 298 305 309 311 312 313 314 315 316 316 315 313 311 309 308 308 309 310 310 310 310 309 308 307 305 303 302 301 298 294 291 292
270 270 269 270 273 278 282 287 290 291 292 293 298 299 296 292 290 292 293 294 294 295 295 296 298 300 303 305 308 308 301 294 292 288 287 293 295 290 285 283 284 283 281 283 287 289 297 306 307 302 298 296 299 305 309 311 313 314 314 314 315 316 315 314 313 311 309 309 310 310 311 311 311 311 310 309 307 305 301 298 298 298 294 292 293
274 273 270 271 276 280 283 286 287 289 291 292 295 295 290 286 288 290 291 293 293 293 294 296 298 301 304 306 310 311 302 292 288 289 291 295 296 293 291 289 288 286 284 289 293 293 303 312 307 298 298 303 306 309 311 313 314 314 313 314 314 315 315 314 312 311 311 311 312 312 312 313 313 311 309 308 306 303 299 296 296 296 294 294 295
271 273 273 274 277 279 282 285 286 289 292 293 291 287 282 282 285 288 290 291 292 293 294 296 299 301 303 306 310 310 302 291 288 291 295 296 293 290 291 291 289 286 287 298 301 300 309 315 307 297 304 309 309 311 312 313 313 312 312 313 314 315 315 313 312 312 313 313 313 314 314 313 312 310 308 307 305 302 299 297 295 295 296 297 298
270 271 273 274 276 278 280 283 286 289 291 290 284 279 278 280 283 286 288 290 290 292 294 295 297 298 300 303 305 306 301 293 288 289 294 295 290 287 289 289 285 280 287 300 306 307 311 313 302 297 304 309 311 312 312 311 310 310 311 313 315 315 314 313 313 314 315 315 315 314 313 311 310 308 307 306 304 302 300 297 296 297 298 298 299
270 271 273 274 275 276 278 281 285 286 285 283 280 278 278 280 281 284 286 287 288 290 292 293 294 296 297 300 301 302 299 293 286 286 292 293 290 288 288 284 280 284 293 302 306 307 307 304 297 298 304 308 309 309 308 308 309 310 312 314 315 315 314 314 316 316 316 316 315 313 310 308 308 307 306 304 303 301 300 298 297 298 298 298 300
271 274 274 273 273 274 276 280 282 281 279 279 279 279 278 279 280 282 283 285 286 288 290 291 293 295 297 300 300 300 300 295 287 285 288 288 288 288 285 283 286 292 297 301 302 303 303 300 297 300 303 305 306 306 306 308 309 311 313 315 315 314 315 316 317 317 317 316 313 310 307 306 305 305 304 302 300 300 299 297 297 298 298 300 302
273 274 273 271 271 273 276 278 279 279 278 279 279 279 278 278 278 279 281 283 285 287 289 291 294 296 298 299 299 299 299 294 285 281 282 281 281 284 286 289 292 294 297 299 299 300 301 298 296 299 302 304 305 306 307 308 310 312 315 315 315 315 316 317 317 317 317 314 310 306 305 304 303 302 302 301 298 298 298 298 299 300 300 301 304
274 272 271 270 272 274 275 276 277 278 278 279 278 278 278 277 278 279 281 284 286 288 290 292 294 295 297 298 297 296 293 282 273 276 280 277 275 280 287 292 293 294 297 299 299 299 299 296 295 299 302 304 304 305 306 308 311 314 316 316 315 315 315 316 316 316 314 310 305 303 302 302 301 300 301 300 297 296 297 299 301 301 300 302 305
269 270 271 272 273 273 273 274 276 277 278 278 278 279 279 280 280 281 283 284 286 288 291 293 295 296 296 295 292 290 284 273 269 278 282 278 278 284 288 289 290 294 298 300 299 299 298 297 297 300 302 302 303 305 307 309 313 316 316 315 313 312 312 314 314 312 309 305 302 301 301 300 299 300 300 298 294 293 295 297 300 302 302 303 305
264 266 270 271 272 272 273 274 274 275 276 277 278 279 281 281 282 283 285 287 288 290 294 296 297 296 296 293 289 285 281 278 280 286 287 286 287 289 288 287 289 294 297 298 298 298 297 297 299 300 301 303 304 306 309 312 314 315 314 311 309 308 309 311 310 307 304 301 299 299 299 299 299 300 301 299 294 291 291 294 299 301 302 303 305
265 267 268 270 271 273 274 274 274 274 274 276 277 279 280 281 282 284 286 289 290 293 297 301 301 300 298 294 291 288 287 287 289 291 291 290 289 289 288 290 292 295 296 296 297 297 298 299 300 301 303 305 306 307 310 312 313 312 309 306 304 305 307 308 306 303 300 298 298 298 298 298 298 299 301 301 298 292 288 290 294 298 301 302 304
268 269 270 271 273 273 273 273 273 273 274 276 277 279 280 281 282 284 287 289 290 293 296 297 297 296 295 292 290 289 289 289 289 291 291 291 291 292 293 294 295 296 296 296 297 298 297 298 300 302 304 305 305 307 309 311 310 307 303 301 300 302 304 303 302 301 298 297 297 297 297 298 298 298 299 302 303 299 291 287 289 295 299 300 302
269 269 270 271 272 272 272 273 273 274 275 277 278 278 279 280 282 285 287 288 289 290 290 287 285 286 288 289 289 289 288 289 290 292 293 293 294 294 294 296 298 299 298 297 297 295 295 298 300 301 302 302 303 306 308 308 305 301 298 296 297 299 300 300 300 299 297 295 296 296 297 297 297 299 301 302 305 306 299 291 288 291 295 298 300
Height
5922 5922 5922 5922 5922 5922 5921 5921 5921 5921 5921 5921 5921 5921 5921 5921 5922 5922 5922 5923 5923 5923 5923 5923 5923 5922 5922 5922 5921 5921 5920 5920 5919 5918 5918 5917 5916 5915 5914 5914 5913 5912 5911 5910 5909 5909 5908 5907 5906 5906 5905 5904 5903 5902 5901 5899 5898 5897 5897 5896 5895 5895 5894 5892 5891 5889 5888 5887 5886 5886 5885 5883 5882 5881 5881 5880 5879 5878 5877 5876 5875 5874 5873 5872 5871
5921 5921 5921 5922 5922 5922 5921 5921 5921 5921 5921 5921 5921 5921 5921 5921 5921 5921 5922 5922 5922 5922 5922 5922 5922 5922 5921 5921 5921 5920 5920 5919 5919 5918 5917 5916 5915 5915 5914 5913 5912 5912 5910 5910 5909 5908 5907 5906 5906 5905 5904 5903 5902 5901 5900 5898 5897 5896 5895 5894 5893 5893 5892 5891 5890 5888 5887 5885 5884 5883 5883 5882 5881 5880 5879 5878 5877 5876 5875 5874 5874 5873 5872 5870 5869
5920 5921 5921 5921 5921 5922 5921 5921 5921 5921 5921 5920 5920 5920 5920 5920 5920 5921 5921 5921 5921 5922 5921 5921 5921 5921 5920 5920 5920 5920 5919 5919 5918 5917 5917 5916 5915 5914 5913 5912 5911 5911 5910 5908 5908 5907 5906 5905 5904 5903 5902 5901 5900 5899 5898 5897 5896 5895 5894 5893 5892 5891 5890 5889 5888 5887 5885 5884 5882 5881 5880 5879 5879 5878 5877 5876 5875 5874 5873 5872 5871 5870 5869 5868 5867
5919 5919 5919 5920 5920 5921 5921 5921 5921 5921 5920 5920 5920 5920 5920 5920 5920 5920 5920 5920 5920 5921 5920 5920 5920 5919 5919 5919 5918 5918 5918 5917 5917 5916 5915 5914 5913 5913 5912 5911 5910 5909 5908 5907 5906 5905 5904 5903 5902 5901 5900 5899 5898 5897 5897 5896 5895 5894 5892 5891 5890 5889 5888 5887 5886 5885 5883 5882 5880 5879 5877 5876 5876 5875 5875 5874 5873 5872 5871 5870 5869 5868 5867 5865 5864
5918 5918 5918 5918 5919 5919 5920 5920 5920 5920 5920 5920 5920 5920 5920 5920 5920 5919 5919 5919 5919 5919 5919 5919 5918 5918 5918 5917 5917 5917 5916 5916 5915 5914 5913 5912 5911 5910 5910 5909 5908 5907 5906 5905 5904 5903 5902 5901 5900 5899 5898 5897 5896 5895 5894 5894 5893 5892 5890 5889 5888 5886 5885 5884 5883 5882 5881 5880 5879 5877 5876 5874 5873 5872 5871 5871 5870 5869 5868 5867 5866 5865 5864 5863 5862
5917 5917 5917 5917 5917 5918 5918 5919 5919 5919 5919 5920 5920 5920 5920 5919 5919 5919 5918 5918 5918 5918 5917 5917 5917 5916 5916 5916 5915 5915 5914 5913 5912 5911 5911 5910 5909 5908 5907 5907 5906 5905 5904 5903 5902 5901 5900 5899 5898 5897 5895 5894 5893 5893 5892 5891 5890 5889 5888 5886 5885 5884 5883 5882 5881 5880 5879 5878 5876 5875 5874 5873 5871 5869 5867 5866 5866 5865 5865 5864 5863 5862 5861 5860 5859
5916 5916 5916 5917 5917 5917 5917 5918 5918 5918 5918 5919 5919 5919 5919 5919 5918 5918 5917 5917 5916 5916 5916 5915 5915 5915 5914 5914 5913 5912 5912 5911 5910 5909 5909 5908 5907 5906 5905 5905 5904 5903 5902 5901 5900 5899 5898 5897 5896 5895 5894 5893 5891 5890 5890 5889 5888 5887 5885 5884 5883 5882 5881 5880 5879 5877 5876 5875 5874 5873 5872 5871 5869 5868 5866 5864 5862 5861 5861 5861 5860 5859 5857 5856 5856
5915 5915 5916 5916 5916 5916 5916 5916 5917 5917 5917 5917 5917 5918 5917 5917 5917 5917 5916 5915 5915 5914 5914 5914 5913 5913 5912 5912 5911 5910 5910 5909 5908 5907 5906 5906 5905 5904 5903 5903 5902 5901 5900 5899 5898 5898 5897 5896 5895 5893 5892 5891 5890 5889 5888 5887 5885 5884 5883 5882 5881 5880 5879 5878 5876 5875 5874 5873 5871 5870 5869 5868 5867 5866 5864 5863 5860 5858 5857 5857 5856 5855 5854 5853 5853
5914 5914 5915 5915 5915 5915 5915 5915 5916 5916 5916 5916 5916 5916 5916 5916 5915 5915 5914 5914 5913 5913 5913 5912 5912 5911 5910 5909 5909 5908 5908 5907 5906 5906 5905 5904 5903 5902 5902 5901 5900 5899 5899 5898 5897 5896 5895 5893 5892 5891 5890 5889 5887 5886 5885 5884 5883 5882 5880 5879 5878 5877 5876 5875 5874 5872 5871 5870 5868 5867 5866 5865 5864 5863 5862 5861 5859 5857 5854 5853 5852 5851 5850 5850 5849
5912 5913 5913 5913 5913 5913 5914 5914 5914 5914 5914 5914 5914 5914 5914 5914 5914 5913 5913 5912 5912 5911 5911 5910 5909 5908 5908 5907 5906 5906 5906 5905 5904 5904 5903 5902 5901 5900 5899 5899 5898 5897 5896 5895 5894 5893 5892 5891 5889 5888 5887 5886 5885 5884 5883 5882 5880 5879 5878 5876 5875 5874 5873 5872 5870 5869 5868 5866 5865 5863 5862 5861 5860 5859 5858 5857 5856 5855 5853 5851 5849 5848 5846 5844 5844
5910 5911 5911 5911 5910 5911 5911 5912 5912 5912 5912 5912 5912 5912 5912 5912 5912 5911 5911 5910 5910 5910 5909 5908 5907 5906 5905 5904 5904 5903 5903 5902 5901 5901 5900 5899 5898 5897 5896 5895 5894 5893 5892 5892 5891 5890 5889 5888 5886 5885 5884 5883 5882 5881 5880 5879 5878 5877 5875 5874 5872 5871 5870 5868 5867 5866 5864 5862 5861 5859 5858 5857 5856 5855 5854 5853 5852 5851 5850 5849 5847 5846 5843 5841 5839
5908 5908 5908 5908 5908 5908 5909 5909 5909 5909 5909 5909 5909 5910 5910 5910 5910 5909 5909 5909 5908 5908 5907 5906 5905 5904 5903 5902 5901 5900 5899 5898 5898 5897 5896 5895 5895 5894 5893 5892 5891 5890 5890 5889 5888 5887 5886 5885 5884 5882 5881 5880 5879 5878 5877 5876 5875 5874 5872 5871 5870 5868 5867 5865 5864 5862 5860 5859 5857 5855 5853 5852 5850 5849 5848 5847 5847 5846 5845 5844 5843 5843 5841 5838 5836
5907 5906 5905 5905 5906 5906 5906 5907 5907 5907 5907 5907 5907 5907 5907 5907 5907 5907 5907 5907 5906 5906 5905 5904 5903 5902 5902 5900 5899 5897 5896 5896 5895 5894 5893 5892 5891 5891 5890 5889 5888 5888 5887 5886 5885 5883 5882 5881 5880 5879 5878 5877 5876 5875 5874 5873 5872 5871 5870 5868 5867 5865 5864 5862 5861 5859 5857 5855 5853 5851 5849 5847 5845 5844 5843 5842 5841 5841 5840 5839 5838 5838 5837 5835 5833
5905 5905 5904 5904 5904 5904 5904 5905 5905 5905 5904 5904 5904 5905 5905 5905 5905 5905 5905 5905 5904 5903 5903 5902 5901 5901 5900 5899 5897 5896 5894 5893 5892 5891 5891 5890 5889 5888 5887 5886 5885 5884 5884 5883 5881 5880 5879 5878 5877 5876 5875 5874 5873 5872 5871 5870 5869 5867 5866 5865 5864 5862 5861 5859 5857 5856 5853 5851 5849 5847 5845 5843 5841 5840 5838 5837 5836 5835 5834 5834 5833 5832 5831 5830 5828
5904 5903 5903 5903 5903 5903 5903 5902 5903 5903 5902 5902 5902 5902 5903 5903 5902 5903 5903 5903 5902 5901 5900 5900 5899 5898 5898 5896 5895 5894 5893 5892 5890 5889 5888 5887 5887 5886 5885 5883 5882 5881 5881 5880 5879 5878 5877 5875 5874 5873 5872 5871 5870 5869 5868 5867 5865 5864 5863 5861 5860 5858 5857 5856 5854 5852 5850 5848 5845 5843 5841 5839 5837 5836 5834 5832 5831 5830 5829 5828 5827 5826 5825 5824 5822
5903 5902 5902 5902 5902 5901 5901 5901 5900 5900 5900 5900 5900 5900 5900 5900 5900 5901 5901 5901 5900 5899 5898 5897 5897 5896 5895 5894 5893 5892 5891 5890 5889 5888 5886 5885 5884 5883 5882 5880 5879 5878 5878 5877 5876 5875 5874 5873 5871 5870 5869 5868 5867 5866 5865 5864 5862 5861 5859 5858 5856 5855 5853 5852 5850 5848 5846 5844 5841 5839 5836 5834 5832 5831 5829 5827 5826 5824 5823 5821 5820 5819 5818 5817 5816
5902 5901 5901 5900 5900 5899 5899 5898 5898 5897 5898 5898 5898 5898 5898 5898 5899 5899 5899 5898 5897 5896 5896 5895 5894 5893 5892 5891 5890 5889 5889 5888 5887 5886 5884 5883 5881 5880 5879 5877 5876 5875 5875 5874 5873 5872 5871 5870 5869 5868 5866 5866 5865 5864 5863 5861 5860 5858 5856 5854 5852 5851 5849 5847 5846 5844 5842 5840 5837 5834 5831 5829 5827 5826 5824 5822 5820 5819 5817 5815 5813 5812 5810 5810 5810
5901 5900 5900 5899 5898 5897 5896 5895 5895 5894 5895 5895 5895 5895 5896 5896 5897 5897 5896 5895 5894 5893 5893 5892 5891 5890 5889 5888 5887 5886 5885 5885 5884 5883 5882 5880 5879 5877 5876 5874 5873 5872 5872 5871 5870 5869 5868 5867 5866 5865 5864 5863 5862 5861 5860 5858 5857 5855 5853 5850 5848 5846 5844 5843 5841 5839 5837 5835 5832 5830 5827 5825 5823 5821 5819 5817 5815 5813 5811 5809 5806 5805 5803 5802 5801
5900 5899 5898 5898 5897 5896 5895 5893 5892 5892 5892 5892 5893 5893 5893 5894 5894 5894 5893 5892 5891 5891 5890 5889 5888 5887 5886 5884 5883 5882 5882 5882 5881 5880 5879 5877 5875 5874 5873 5871 5871 5870 5869 5868 5867 5866 5865 5864 5863 5862 5860 5859 5858 5858 5856 5855 5853 5851 5849 5846 5844 5842 5840 5838 5837 5835 5833 5831 5828 5826 5823 5820 5818 5816 5813 5811 5809 5807 5805 5802 5800 5798 5796 5794 5793
5898 5897 5896 5896 5896 5895 5893 5892 5891 5890 5890 5890 5891 5891 5891 5891 5891 5891 5891 5890 5889 5888 5887 5885 5884 5883 5882 5881 5879 5879 5879 5878 5877 5876 5875 5873 5872 5871 5870 5869 5868 5868 5867 5865 5864 5863 5862 5860 5859 5858 5857 5856 5855 5854 5853 5851 5850 5848 5845 5842 5840 5838 5836 5834 5833 5831 5829 5827 5824 5821 5818 5815 5813 5810 5808 5805 5802 5800 5799 5796 5794 5792 5789 5787 5786
5895 5895 5894 5894 5893 5892 5892 5890 5889 5889 5889 5889 5889 5889 5888 5888 5889 5889 5888 5887 5886 5885 5884 5882 5880 5880 5879 5878 5877 5876 5875 5875 5873 5872 5871 5870 5869 5868 5867 5867 5866 5865 5864 5863 5861 5860 5859 5857 5856 5855 5853 5852 5851 5850 5849 5848 5846 5843 5841 5838 5836 5834 5832 5830 5829 5827 5825 5822 5819 5816 5813 5810 5807 5805 5802 5799 5796 5794 5792 5791 5789 5786 5783 5780 5778
5893 5893 5892 5891 5891 5890 5889 5888 5888 5887 5887 5887 5887 5886 5886 5886 5886 5886 5885 5884 5883 5882 5880 5878 5877 5876 5875 5874 5873 5871 5871 5870 5868 5867 5866 5866 5866 5866 5865 5864 5863 5862 5860 5859 5858 5857 5856 5854 5852 5851 5849 5848 5847 5846 5845 5843 5841 5838 5836 5834 5832 5830 5829 5827 5825 5822 5820 5817 5815 5812 5808 5805 5802 5800 5797 5794 5791 5788 5786 5785 5782 5780 5777 5774 5771
5891 5891 5890 5889 5889 5888 5887 5887 5886 5886 5886 5886 5885 5885 5884 5884 5884 5883 5883 5882 5880 5878 5876 5874 5873 5872 5871 5869 5867 5866 5865 5865 5864 5863 5863 5863 5863 5862 5861 5860 5859 5858 5857 5856 5855 5854 5852 5850 5848 5847 5845 5844 5843 5842 5840 5838 5836 5833 5831 5830 5829 5827 5825 5822 5820 5818 5815 5813 5810 5807 5804 5800 5797 5795 5791 5788 5786 5782 5780 5778 5776 5773 5771 5767 5764
5889 5888 5888 5887 5887 5886 5886 5886 5885 5885 5885 5885 5884 5884 5883 5883 5882 5882 5880 5878 5876 5874 5873 5871 5870 5868 5866 5863 5861 5861 5862 5862 5860 5859 5859 5860 5860 5858 5856 5856 5855 5854 5853 5852 5851 5850 5848 5846 5844 5843 5841 5840 5839 5838 5836 5834 5832 5830 5828 5826 5825 5823 5820 5818 5816 5813 5811 5808 5806 5802 5799 5795 5792 5790 5786 5783 5780 5777 5774 5771 5769 5767 5764 5761 5758
5885 5885 5885 5885 5884 5884 5884 5884 5884 5884 5883 5883 5883 5882 5882 5882 5881 5880 5878 5876 5873 5871 5870 5869 5866 5863 5859 5856 5856 5861 5863 5860 5857 5856 5856 5856 5855 5854 5853 5852 5851 5850 5849 5848 5847 5846 5845 5843 5841 5839 5838 5837 5836 5834 5832 5830 5828 5826 5825 5823 5821 5818 5816 5814 5812 5809 5807 5804 5801 5797 5794 5790 5787 5784 5781 5778 5775 5771 5768 5765 5763 5760 5757 5754 5752
5881 5881 5882 5882 5882 5881 5881 5881 5881 5881 5880 5880 5880 5880 5880 5880 5879 5878 5876 5874 5872 5869 5868 5866 5862 5858 5853 5852 5856 5859 5859 5855 5852 5851 5850 5850 5849 5849 5848 5847 5846 5846 5845 5844 5843 5842 5841 5839 5837 5836 5835 5834 5832 5830 5828 5826 5824 5823 5821 5818 5816 5814 5811 5809 5807 5805 5802 5799 5796 5792 5788 5785 5782 5779 5775 5772 5768 5765 5762 5760 5757 5754 5751 5749 5746
5878 5878 5879 5879 5879 5879 5878 5878 5878 5878 5877 5877 5877 5878 5878 5878 5877 5875 5873 5872 5869 5866 5865 5862 5858 5854 5850 5851 5855 5855 5853 5851 5849 5845 5844 5844 5844 5844 5844 5843 5842 5841 5841 5840 5839 5838 5837 5835 5834 5832 5832 5830 5829 5827 5825 5822 5820 5818 5815 5813 5811 5809 5807 5804 5802 5800 5797 5794 5790 5786 5783 5780 5777 5774 5770 5766 5762 5759 5756 5754 5751 5748 5746 5743 5741
5875 5875 5876 5876 5876 5876 5876 5876 5875 5875 5875 5875 5875 5875 5875 5874 5874 5872 5871 5869 5865 5862 5861 5859 5856 5852 5850 5850 5850 5849 5847 5847 5845 5841 5839 5840 5840 5840 5840 5840 5839 5838 5837 5837 5836 5834 5833 5832 5830 5829 5828 5827 5825 5823 5820 5817 5815 5812 5810 5808 5806 5804 5802 5800 5797 5795 5792 5788 5784 5780 5777 5774 5771 5768 5764 5760 5757 5753 5751 5748 5745 5742 5740 5738 5736
5872 5872 5872 5873 5873 5873 5873 5873 5872 5872 5872 5871 5871 5871 5871 5870 5869 5868 5867 5864 5861 5858 5857 5856 5854 5851 5850 5847 5843 5842 5843 5843 5841 5839 5837 5837 5837 5836 5836 5837 5836 5835 5834 5833 5832 5831 5829 5828 5827 5825 5824 5822 5820 5818 5815 5812 5810 5807 5805 5803 5801 5799 5797 5795 5792 5789 5786 5782 5778 5774 5771 5769 5765 5762 5758 5754 5751 5747 5745 5743 5740 5737 5735 5733 5731
5869 5869 5869 5869 5870 5870 5870 5870 5869 5868 5868 5868 5867 5866 5866 5865 5863 5862 5861 5859 5857 5855 5854 5853 5851 5847 5846 5843 5838 5837 5839 5839 5837 5835 5834 5833 5833 5832 5832 5833 5832 5831 5830 5829 5828 5826 5825 5824 5822 5821 5819 5817 5815 5812 5810 5807 5805 5803 5801 5799 5797 5795 5792 5790 5787 5784 5780 5776 5772 5768 5765 5762 5759 5756 5752 5748 5745 5742 5739 5737 5734 5732 5730 5728 5726
5865 5865 5865 5866 5866 5866 5866 5866 5865 5865 5864 5864 5863 5862 5860 5859 5858 5856 5854 5853 5852 5851 5850 5849 5846 5843 5841 5838 5833 5834 5836 5835 5833 5831 5830 5829 5830 5830 5829 5829 5827 5826 5825 5824 5823 5821 5820 5819 5818 5816 5814 5812 5810 5807 5805 5802 5800 5799 5797 5795 5792 5790 5788 5785 5782 5778 5774 5770 5766 5762 5759 5756 5753 5749 5746 5742 5739 5736 5734 5731 5729 5726 5725 5723 5721
5861 5861 5862 5862 5862 5862 5862 5862 5862 5861 5860 5859 5857 5856 5855 5854 5853 5851 5849 5847 5846 5846 5845 5843 5841 5839 5837 5834 5831 5832 5833 5832 5830 5828 5826 5825 5826 5826 5825 5824 5822 5821 5820 5819 5818 5816 5815 5814 5813 5811 5809 5807 5805 5802 5800 5798 5796 5794 5792 5790 5788 5785 5783 5780 5776 5772 5768 5764 5761 5757 5754 5751 5747 5743 5740 5737 5734 5731 5728 5725 5723 5721 5719 5717 5716
5858 5858 5858 5858 5858 5858 5858 5858 5857 5856 5855 5854 5853 5852 5851 5850 5848 5846 5844 5842 5841 5841 5840 5838 5836 5834 5832 5830 5829 5829 5829 5828 5826 5823 5820 5820 5821 5821 5820 5818 5816 5815 5814 5814 5813 5812 5811 5810 5809 5807 5805 5803 5801 5798 5795 5793 5791 5790 5788 5785 5783 5780 5777 5774 5770 5766 5762 5758 5755 5752 5749 5745 5741 5738 5735 5732 5729 5726 5722 5720 5718 5716 5714 5712 5711
5854 5855 5855 5855 5854 5854 5854 5853 5852 5852 5851 5850 5849 5848 5847 5845 5843 5841 5839 5838 5837 5837 5836 5834 5832 5830 5828 5826 5825 5824 5823 5821 5820 5817 5814 5814 5815 5814 5813 5811 5810 5809 5809 5808 5808 5807 5807 5806 5804 5803 5801 5799 5796 5793 5791 5789 5787 5786 5783 5781 5778 5775 5772 5769 5764 5760 5756 5752 5749 5746 5743 5740 5736 5732 5729 5726 5724 5721 5718 5715 5713 5712 5710 5708 5706
5851 5851 5851 5851 5850 5850 5849 5848 5847 5847 5846 5845 5844 5843 5842 5841 5839 5838 5836 5834 5833 5833 5832 5829 5827 5825 5824 5822 5820 5818 5816 5815 5812 5810 5809 5808 5808 5807 5806 5805 5805 5804 5804 5804 5804 5803 5803 5802 5801 5798 5796 5793 5791 5789 5787 5785 5784 5781 5778 5776 5773 5770 5766 5762 5758 5754 5750 5747 5744 5741 5737 5734 5730 5727 5724 5721 5720 5717 5713 5710 5709 5708 5706 5705 5702
5847 5847 5847 5846 5846 5846 5845 5843 5843 5842 5841 5840 5840 5840 5839 5837 5836 5834 5832 5831 5829 5828 5827 5826 5823 5820 5818 5817 5816 5814 5811 5808 5806 5806 5806 5805 5803 5802 5801 5801 5800 5800 5800 5799 5799 5800 5799 5798 5796 5793 5790 5788 5787 5785 5783 5782 5779 5776 5773 5770 5767 5764 5760 5756 5752 5748 5745 5742 5739 5735 5732 5728 5725 5722 5719 5716 5715 5713 5709 5706 5705 5704 5703 5701 5698
5843 5842 5842 5841 5841 5841 5840 5839 5839 5839 5838 5837 5836 5835 5835 5834 5832 5830 5828 5827 5825 5824 5822 5821 5819 5816 5814 5813 5812 5810 5807 5804 5803 5803 5803 5801 5799 5798 5797 5796 5796 5795 5795 5795 5796 5795 5794 5793 5790 5788 5785 5784 5782 5781 5779 5776 5773 5770 5767 5764 5761 5757 5753 5749 5745 5742 5739 5736 5733 5729 5726 5723 5720 5717 5714 5711 5710 5708 5705 5703 5702 5701 5699 5697 5695
5837 5837 5836 5836 5836 5836 5835 5835 5835 5835 5835 5834 5832 5831 5830 5829 5827 5825 5824 5822 5821 5819 5818 5816 5814 5812 5810 5809 5808 5806 5803 5800 5799 5799 5798 5796 5795 5794 5793 5792 5791 5791 5791 5791 5791 5790 5788 5787 5784 5781 5779 5778 5777 5775 5773 5770 5767 5764 5760 5757 5753 5750 5746 5742 5739 5736 5733 5730 5727 5723 5720 5718 5715 5712 5709 5706 5704 5703 5701 5700 5699 5697 5695 5693 5691
5832 5832 5832 5831 5831 5831 5831 5832 5832 5831 5830 5830 5828 5827 5825 5824 5822 5820 5819 5817 5815 5814 5813 5811 5809 5807 5805 5804 5803 5801 5798 5796 5796 5795 5793 5791 5790 5789 5788 5787 5786 5786 5786 5786 5786 5785 5783 5781 5778 5774 5772 5771 5771 5769 5766 5763 5759 5757 5754 5750 5747 5744 5740 5737 5734 5730 5727 5724 5721 5718 5715 5712 5710 5707 5704 5702 5700 5698 5697 5696 5694 5693 5691 5689 5687
5827 5827 5827 5827 5827 5827 5827 5828 5827 5827 5826 5825 5824 5822 5820 5819 5817 5815 5813 5811 5810 5809 5808 5806 5804 5803 5801 5799 5798 5797 5794 5792 5792 5790 5789 5787 5785 5784 5783 5782 5782 5782 5782 5782 5781 5779 5778 5775 5771 5768 5766 5766 5764 5762 5759 5756 5753 5751 5748 5745 5742 5738 5734 5731 5728 5725 5722 5719 5715 5713 5710 5707 5705 5703 5701 5698 5696 5694 5693 5692 5690 5689 5687 5685 5683
5823 5822 5822 5822 5823 5823 5823 5823 5822 5822 5821 5820 5818 5817 5815 5814 5812 5810 5808 5807 5805 5804 5803 5802 5800 5798 5796 5794 5793 5792 5790 5788 5786 5784 5783 5781 5780 5779 5779 5778 5778 5778 5778 5777 5776 5774 5772 5768 5765 5763 5762 5761 5759 5756 5753 5750 5748 5746 5743 5740 5736 5732 5729 5725 5722 5719 5716 5713 5710 5707 5705 5703 5701 5699 5697 5695 5693 5691 5689 5688 5687 5685 5683 5681 5680
5818 5817 5817 5818 5818 5818 5818 5817 5817 5816 5815 5814 5813 5812 5811 5809 5807 5806 5804 5802 5801 5799 5798 5797 5795 5793 5791 5789 5788 5787 5785 5783 5781 5780 5778 5776 5775 5774 5774 5774 5774 5774 5773 5772 5771 5768 5766 5764 5762 5759 5757 5755 5753 5750 5747 5745 5743 5741 5737 5734 5730 5726 5723 5720 5717 5714 5711 5708 5705 5702 5700 5699 5697 5696 5694 5692 5690 5688 5686 5685 5683 5681 5679 5677 5676
5813 5812 5812 5813 5813 5813 5813 5812 5812 5811 5810 5809 5808 5807 5806 5804 5803 5802 5800 5798 5796 5794 5793 5791 5789 5787 5786 5784 5783 5781 5780 5778 5777 5775 5774 5771 5770 5770 5771 5770 5769 5769 5768 5767 5766 5764 5762 5760 5758 5755 5751 5749 5747 5745 5743 5741 5738 5735 5732 5728 5724 5720 5717 5714 5711 5708 5705 5703 5701 5699 5697 5696 5694 5692 5690 5689 5687 5685 5683 5681 5680 5678 5676 5674 5672
5809 5808 5807 5807 5807 5807 5807 5806 5806 5805 5804 5804 5803 5802 5801 5800 5798 5797 5795 5793 5791 5790 5788 5785 5783 5781 5780 5778 5777 5776 5774 5772 5771 5770 5769 5767 5766 5767 5767 5767 5766 5764 5762 5761 5760 5760 5759 5755 5753 5750 5747 5745 5743 5740 5737 5735 5732 5729 5725 5722 5718 5715 5711 5709 5706 5704 5701 5699 5697 5696 5694 5693 5691 5689 5687 5685 5683 5682 5680 5678 5676 5674 5672 5670 5669
5804 5803 5802 5801 5801 5801 5801 5800 5800 5799 5798 5798 5798 5797 5796 5795 5793 5791 5790 5788 5786 5784 5782 5780 5778 5776 5774 5773 5771 5770 5768 5766 5764 5765 5765 5764 5763 5763 5763 5763 5762 5760 5758 5757 5755 5755 5755 5751 5747 5745 5743 5739 5737 5734 5731 5728 5725 5722 5719 5715 5712 5709 5706 5704 5702 5700 5698 5696 5694 5693 5691 5690 5688 5686 5684 5682 5680 5679 5677 5675 5673 5671 5669 5667 5666
5797 5797 5796 5795 5795 5795 5795 5794 5794 5793 5792 5792 5792 5792 5791 5789 5787 5786 5784 5782 5780 5779 5777 5775 5773 5771 5769 5767 5766 5764 5763 5762 5760 5760 5760 5760 5759 5759 5758 5757 5757 5755 5754 5752 5750 5749 5749 5746 5742 5739 5737 5733 5730 5727 5725 5722 5719 5716 5712 5709 5706 5704 5702 5700 5698 5697 5695 5694 5692 5690 5689 5687 5685 5683 5681 5679 5677 5675 5674 5672 5670 5668 5666 5664 5662
5791 5791 5790 5790 5789 5789 5789 5788 5788 5787 5787 5787 5786 5785 5784 5783 5781 5780 5778 5776 5774 5773 5771 5770 5769 5766 5763 5762 5761 5759 5757 5758 5757 5756 5755 5755 5755 5755 5753 5752 5751 5749 5747 5746 5744 5742 5741 5738 5736 5733 5730 5727 5724 5722 5719 5716 5712 5709 5706 5703 5702 5700 5699 5697 5695 5694 5692 5691 5689 5687 5685 5683 5682 5680 5677 5675 5673 5672 5670 5669 5667 5665 5663 5661 5659
5785 5785 5784 5784 5784 5783 5783 5783 5783 5782 5782 5781 5780 5779 5778 5777 5775 5774 5773 5771 5768 5767 5766 5765 5763 5761 5758 5755 5755 5754 5754 5754 5754 5753 5753 5753 5752 5751 5749 5747 5745 5744 5742 5740 5738 5736 5733 5731 5728 5726 5723 5721 5718 5715 5712 5709 5706 5703 5701 5699 5698 5696 5695 5693 5692 5691 5689 5688 5686 5684 5682 5680 5678 5676 5674 5672 5670 5668 5667 5665 5664 5662 5660 5658 5657
5779 5779 5778 5778 5778 5778 5778 5778 5778 5778 5777 5776 5775 5773 5773 5772 5770 5769 5767 5765 5762 5760 5760 5759 5757 5756 5753 5751 5750 5751 5752 5752 5751 5751 5750 5749 5747 5745 5744 5742 5740 5738 5737 5734 5732 5729 5726 5723 5721 5718 5716 5714 5711 5708 5706 5703 5700 5698 5697 5695 5694 5692 5691 5690 5688 5687 5686 5684 5683 5680 5678 5676 5674 5673 5671 5668 5666 5664 5663 5662 5661 5659 5657 5656 5654
5774 5774 5773 5773 5774 5773 5773 5773 5773 5773 5772 5770 5769 5768 5768 5767 5765 5764 5762 5759 5756 5755 5755 5754 5753 5752 5751 5750 5749 5749 5748 5747 5746 5745 5743 5742 5740 5738 5737 5735 5733 5732 5730 5728 5725 5722 5719 5717 5714 5712 5710 5708 5706 5703 5701 5699 5696 5694 5693 5691 5690 5688 5687 5686 5685 5683 5682 5680 5678 5676 5674 5672 5670 5669 5667 5665 5663 5661 5659 5658 5657 5656 5654 5653 5651
5769 5769 5769 5769 5769 5768 5768 5767 5768 5767 5766 5765 5764 5764 5763 5761 5760 5759 5756 5753 5751 5751 5751 5750 5750 5748 5747 5746 5745 5744 5742 5741 5739 5738 5736 5735 5733 5732 5730 5729 5727 5725 5723 5721 5718 5715 5713 5711 5709 5707 5705 5703 5701 5698 5696 5694 5692 5691 5689 5687 5685 5684 5683 5682 5681 5679 5678 5676 5674 5672 5670 5668 5667 5665 5663 5661 5659 5657 5656 5654 5653 5652 5651 5650 5649